SQ9NFI-4 Weather Reports


Display with metric or nautical units.
time (UTC)temp
F
wind
direction
speed
MPH
gust
MPH
rain 1hr
in
rain 24hr
in
rain mn
in
humidity
%
barometer
mb
20260831223901 58 332 0.0 0.0 0.00 0.00 0.00 99 1017.3
20260831223401 58 332 0.0 0.0 0.00 0.00 0.00 99 1017.3
20260831222901 58 332 0.0 0.0 0.00 0.00 0.00 99 1017.3
20260831222401 58 333 0.0 0.0 0.00 0.00 0.00 99 1017.3
20260831221901 58 333 0.0 0.0 0.00 0.00 0.00 99 1017.3
20260831221401 58 330 0.0 0.0 0.00 0.00 0.00 99 1017.3
20260831220901 58 330 0.0 0.0 0.00 0.00 0.00 99 1017.3
20260831220401 58 330 0.0 0.0 0.00 0.00 0.00 99 1017.3
20260831215901 58 335 0.0 0.0 0.00 0.00 0.00 99 1017.3
20260831215401 58 336 0.0 0.0 0.00 0.00 0.00 99 1017.3
20260831214901 58 340 1.0 1.0 0.00 0.00 0.00 99 1016.9
20260831214401 58 315 2.0 2.0 0.00 0.00 0.00 99 1016.9
20260831213901 58 312 0.0 1.0 0.00 0.00 0.00 99 1016.9
20260831213401 58 341 0.0 0.0 0.00 0.00 0.00 99 1017.3
20260831212901 58 339 0.0 0.0 0.00 0.00 0.00 99 1017.3
20260831212401 58 329 0.0 0.0 0.00 0.00 0.00 99 1017.3
20260831211901 58 329 0.0 0.0 0.00 0.00 0.00 99 1017.3
20260831211401 59 329 0.0 0.0 0.00 0.00 0.00 99 1016.9
20260831210901 59 324 0.0 0.0 0.00 0.00 0.00 99 1016.9
20260831210401 59 323 0.0 0.0 0.00 0.00 0.00 99 1016.9
20260831205901 60 322 0.0 1.0 0.00 0.00 0.00 99 1016.9
20260831205401 60 325 0.0 0.0 0.00 0.00 0.00 99 1016.9
20260831204901 60 328 0.0 0.0 0.00 0.00 0.00 99 1016.9
20260831204401 60 334 0.0 0.0 0.00 0.00 0.00 99 1016.9
20260831203901 60 333 0.0 0.0 0.00 0.00 0.00 99 1016.9
20260831203401 60 333 0.0 0.0 0.00 0.00 0.00 99 1016.9
20260831202901 60 334 0.0 0.0 0.00 0.00 0.00 99 1016.9
20260831202401 60 325 0.0 0.0 0.00 0.00 0.00 99 1016.6
20260831201901 60 330 0.0 0.0 0.00 0.00 0.00 99 1016.6
20260831201401 60 330 0.0 0.0 0.00 0.00 0.00 99 1016.6
20260831200901 60 330 0.0 0.0 0.00 0.00 0.00 99 1016.6
20260831200401 60 330 0.0 0.0 0.00 0.00 0.00 99 1016.6
20260831195901 60 332 0.0 0.0 0.00 0.00 0.00 99 1016.6
20260831195401 60 330 0.0 0.0 0.00 0.00 0.00 99 1016.6
20260831194901 61 344 1.0 1.0 0.00 0.00 0.00 99 1016.6
20260831194401 61 333 0.0 0.0 0.00 0.00 0.00 98 1016.6
20260831193901 61 323 1.0 1.0 0.00 0.00 0.00 98 1016.6
20260831193401 61 334 0.0 0.0 0.00 0.00 0.00 97 1016.6
20260831192901 62 332 0.0 0.0 0.00 0.00 0.00 97 1016.6
20260831192401 62 332 0.0 0.0 0.00 0.00 0.00 97 1016.6
20260831191901 62 332 0.0 0.0 0.00 0.00 0.00 95 1016.6
20260831191401 63 332 0.0 0.0 0.00 0.00 0.00 95 1016.6
20260831190901 64 332 0.0 0.0 0.00 0.00 0.00 94 1016.6
20260831190401 64 328 0.0 1.0 0.00 0.00 0.00 93 1016.6
20260831185901 65 327 1.0 1.0 0.00 0.00 0.00 91 1016.6
20260831185401 65 345 0.0 0.0 0.00 0.00 0.00 88 1016.6
20260831184901 67 352 1.0 1.0 0.00 0.00 0.00 84 1016.3
20260831184401 68 327 2.0 2.0 0.00 0.00 0.00 79 1016.3
20260831183901 66 307 2.0 3.0 0.00 0.00 0.00 86 1016.3
20260831183401 65 319 0.0 0.0 0.00 0.00 0.00 93 1016.3
20260831182901 65 316 0.0 1.0 0.00 0.00 0.00 95 1016.3
20260831182401 66 323 0.0 1.0 0.00 0.00 0.00 94 1015.9
20260831181901 66 335 0.0 0.0 0.00 0.00 0.00 94 1015.9
20260831181401 67 336 0.0 0.0 0.00 0.00 0.00 93 1015.9
20260831180901 67 332 0.0 0.0 0.00 0.00 0.00 92 1015.9
20260831180401 68 333 0.0 0.0 0.00 0.00 0.00 88 1015.9
20260831175901 68 330 0.0 0.0 0.00 0.00 0.00 87 1015.2
20260831175401 69 323 1.0 1.0 0.00 0.00 0.00 86 1015.2
20260831174901 70 323 0.0 0.0 0.00 0.00 0.00 83 1015.2
20260831174401 70 324 0.0 0.0 0.00 0.00 0.00 80 1015.2
20260831173901 71 314 0.0 0.0 0.00 0.00 0.00 80 1015.2
20260831173401 71 324 0.0 0.0 0.00 0.00 0.00 77 1015.2
20260831172901 72 338 0.0 0.0 0.00 0.00 0.00 75 1015.2
20260831172401 73 307 0.0 1.0 0.00 0.00 0.00 72 1015.2
20260831171901 73 337 4.0 5.0 0.00 0.00 0.00 69 1015.2
20260831171401 73 309 4.0 5.0 0.00 0.00 0.00 73 1015.2
20260831170901 71 325 0.0 0.0 0.00 0.00 0.00 86 1015.2
20260831170401 72 323 0.0 0.0 0.00 0.00 0.00 82 1015.2
20260831165901 72 317 1.0 1.0 0.00 0.00 0.00 84 1015.2
20260831165401 73 325 0.0 1.0 0.00 0.00 0.00 81 1015.2
20260831164901 73 321 0.0 0.0 0.00 0.00 0.00 77 1014.9
20260831164401 73 288 4.0 6.0 0.00 0.00 0.00 73 1014.9
20260831163901 73 320 0.0 0.0 0.00 0.00 0.00 78 1014.9
20260831163401 73 331 3.0 4.0 0.00 0.00 0.00 76 1014.9
20260831162901 74 336 0.0 0.0 0.00 0.00 0.00 80 1014.9
20260831162401 74 326 0.0 0.0 0.00 0.00 0.00 80 1015.2
20260831161901 74 325 0.0 0.0 0.00 0.00 0.00 80 1015.2
20260831161401 74 323 0.0 0.0 0.00 0.00 0.00 78 1015.2
20260831160901 74 295 0.0 1.0 0.00 0.00 0.00 76 1015.2
20260831160401 74 330 1.0 2.0 0.00 0.00 0.00 74 1015.2
20260831155901 75 321 0.0 0.0 0.00 0.00 0.00 74 1014.9
20260831155401 74 319 1.0 1.0 0.00 0.00 0.00 74 1014.9
20260831154901 76 324 0.0 0.0 0.00 0.00 0.00 73 1014.9
20260831154401 76 345 4.0 4.0 0.00 0.00 0.00 68 1014.9
20260831153901 77 335 1.0 3.0 0.00 0.00 0.00 69 1014.9
20260831153401 77 314 1.0 1.0 0.00 0.00 0.00 68 1014.9
20260831152901 76 298 1.0 1.0 0.00 0.00 0.00 69 1014.9
20260831152401 76 280 2.0 3.0 0.00 0.00 0.00 68 1015.2
20260831151901 76 312 1.0 1.0 0.00 0.00 0.00 69 1015.2
20260831151401 76 308 1.0 1.0 0.00 0.00 0.00 71 1015.2
20260831150901 76 304 1.0 2.0 0.00 0.00 0.00 71 1015.2
20260831150401 76 306 1.0 1.0 0.00 0.00 0.00 67 1015.2
20260831145901 76 330 0.0 0.0 0.00 0.00 0.00 66 1015.2
20260831145401 76 316 0.0 1.0 0.00 0.00 0.00 67 1015.2
20260831144901 76 341 1.0 1.0 0.00 0.00 0.00 68 1015.2
20260831144401 76 326 4.0 5.0 0.00 0.00 0.00 67 1015.2
20260831143901 76 334 3.0 4.0 0.00 0.00 0.00 68 1015.2
20260831143401 76 17 3.0 3.0 0.00 0.00 0.00 67 1015.2
20260831142901 77 0 3.0 4.0 0.00 0.00 0.00 65 1015.2
20260831142401 77 324 3.0 3.0 0.00 0.00 0.00 65 1015.2
20260831141901 77 288 4.0 6.0 0.00 0.00 0.00 65 1015.2
20260831141401 77 341 10.0 13.0 0.00 0.00 0.00 64 1015.2
20260831140901 79 304 6.0 6.0 0.00 0.00 0.00 64 1015.2
20260831140401 78 18 3.0 4.0 0.00 0.00 0.00 65 1015.2
20260831135901 77 324 9.0 13.0 0.00 0.00 0.00 64 1015.2
20260831135401 78 315 2.0 4.0 0.00 0.00 0.00 63 1015.2
20260831134901 78 310 4.0 6.0 0.00 0.00 0.00 65 1015.2
20260831134401 76 328 10.0 13.0 0.00 0.00 0.00 66 1015.2
20260831133901 76 326 6.0 8.0 0.00 0.00 0.00 67 1015.2
20260831133401 76 305 6.0 9.0 0.00 0.00 0.00 66 1015.2
20260831132901 76 333 6.0 7.0 0.00 0.00 0.00 66 1015.2
20260831132401 76 345 3.0 4.0 0.00 0.00 0.00 64 1015.2
20260831131901 77 325 7.0 9.0 0.00 0.00 0.00 63 1015.2
20260831131401 78 329 6.0 9.0 0.00 0.00 0.00 62 1015.2
20260831130901 78 335 10.0 14.0 0.00 0.00 0.00 60 1015.2
20260831130401 77 285 7.0 8.0 0.00 0.00 0.00 61 1015.2
20260831125901 77 330 4.0 6.0 0.00 0.00 0.00 61 1015.2
20260831125401 78 317 6.0 10.0 0.00 0.00 0.00 62 1015.2
20260831124901 78 318 2.0 3.0 0.00 0.00 0.00 60 1015.2
20260831124401 78 325 6.0 10.0 0.00 0.00 0.00 59 1015.2
20260831123901 78 335 7.0 11.0 0.00 0.00 0.00 59 1015.2
20260831123401 78 303 3.0 5.0 0.00 0.00 0.00 61 1015.2
20260831122901 79 295 6.0 7.0 0.00 0.00 0.00 58 1015.2
20260831122401 80 288 2.0 3.0 0.00 0.00 0.00 59 1014.9
20260831121901 80 324 4.0 6.0 0.00 0.00 0.00 54 1014.9
20260831121401 80 322 6.0 7.0 0.00 0.00 0.00 56 1014.9
20260831120901 80 315 4.0 6.0 0.00 0.00 0.00 55 1014.9
20260831120401 80 324 4.0 5.0 0.00 0.00 0.00 61 1014.9
20260831115901 79 324 3.0 4.0 0.00 0.00 0.00 66 1015.2
20260831115401 78 336 2.0 2.0 0.00 0.00 0.00 62 1015.2
20260831114901 78 312 4.0 6.0 0.00 0.00 0.00 63 1015.2
20260831114401 78 318 1.0 1.0 0.00 0.00 0.00 68 1015.2
20260831113901 78 320 0.0 0.0 0.00 0.00 0.00 69 1015.2
20260831113401 78 302 3.0 3.0 0.00 0.00 0.00 63 1015.2
20260831112901 78 314 4.0 5.0 0.00 0.00 0.00 59 1015.2
20260831112401 78 325 1.0 2.0 0.00 0.00 0.00 62 1015.2
20260831111901 78 303 1.0 1.0 0.00 0.00 0.00 59 1015.2
20260831111401 78 328 2.0 2.0 0.00 0.00 0.00 59 1015.2
20260831110901 79 322 1.0 2.0 0.00 0.00 0.00 59 1015.2
20260831110401 79 312 1.0 1.0 0.00 0.00 0.00 59 1015.2
20260831105900 80 314 0.0 1.0 0.00 0.00 0.00 58 1015.2
20260831105401 79 270 1.0 2.0 0.00 0.00 0.00 57 1015.2
20260831104901 80 328 1.0 4.0 0.00 0.00 0.00 57 1015.2
20260831104400 80 302 2.0 2.0 0.00 0.00 0.00 56 1015.2
20260831103900 80 306 2.0 2.0 0.00 0.00 0.00 58 1015.2
20260831103400 80 320 1.0 2.0 0.00 0.00 0.00 59 1015.2
20260831102901 79 325 1.0 1.0 0.00 0.00 0.00 58 1015.2
20260831102400 79 290 2.0 3.0 0.00 0.00 0.00 57 1015.2
20260831101900 79 316 1.0 2.0 0.00 0.00 0.00 57 1015.2
20260831101400 79 304 2.0 3.0 0.00 0.00 0.00 56 1015.2
20260831100900 79 185 5.0 6.0 0.00 0.00 0.00 55 1015.2
20260831100400 80 277 3.0 4.0 0.00 0.00 0.00 57 1015.2
20260831095901 80 236 4.0 6.0 0.00 0.00 0.00 52 1015.2
20260831095401 80 226 9.0 9.0 0.00 0.00 0.00 53 1015.2
20260831094901 82 272 2.0 7.0 0.00 0.00 0.00 55 1015.2
20260831094401 81 259 4.0 5.0 0.00 0.00 0.00 52 1015.2
20260831093900 82 171 8.0 13.0 0.00 0.00 0.00 50 1015.2
20260831093401 83 214 4.0 4.0 0.00 0.00 0.00 52 1015.2
20260831092901 84 260 4.0 4.0 0.00 0.00 0.00 51 1015.2
20260831092401 83 194 7.0 7.0 0.00 0.00 0.00 52 1015.2
20260831091901 82 210 7.0 9.0 0.00 0.00 0.00 54 1015.2
20260831091401 82 209 5.0 10.0 0.00 0.00 0.00 54 1015.2
20260831090901 82 124 6.0 10.0 0.00 0.00 0.00 52 1015.2
20260831090401 83 261 3.0 5.0 0.00 0.00 0.00 50 1015.2
20260831085901 82 218 4.0 10.0 0.00 0.00 0.00 52 1015.2
20260831085401 82 300 3.0 4.0 0.00 0.00 0.00 54 1015.2
20260831084901 83 234 3.0 6.0 0.00 0.00 0.00 48 1015.2
20260831084400 82 153 7.0 7.0 0.00 0.00 0.00 50 1015.2
20260831083900 80 225 6.0 10.0 0.00 0.00 0.00 52 1015.2
20260831083400 81 270 5.0 10.0 0.00 0.00 0.00 48 1015.2
20260831082901 83 219 3.0 3.0 0.00 0.00 0.00 52 1015.2
20260831082400 81 203 7.0 8.0 0.00 0.00 0.00 50 1015.2
20260831081901 81 206 4.0 4.0 0.00 0.00 0.00 52 1015.2
20260831081401 80 222 3.0 4.0 0.00 0.00 0.00 53 1015.2
20260831081239 80 222 3.0 4.0 0.00 0.00 0.00 53 1015.2
20260831080739 81 248 3.0 3.0 0.00 0.00 0.00 51 1015.2
20260831080239 80 263 2.0 3.0 0.00 0.00 0.00 54 1015.2
20260831075739 78 270 5.0 6.0 0.00 0.00 0.00 55 1015.2
20260831075239 79 264 3.0 6.0 0.00 0.00 0.00 55 1015.2
20260831074739 80 236 3.0 4.0 0.00 0.00 0.00 53 1015.2
20260831074239 78 193 5.0 7.0 0.00 0.00 0.00 56 1015.2
20260831073739 79 264 6.0 9.0 0.00 0.00 0.00 54 1015.2
20260831073239 78 281 2.0 4.0 0.00 0.00 0.00 61 1015.2
20260831072739 78 302 4.0 9.0 0.00 0.00 0.00 59 1015.2
20260831072239 77 215 5.0 6.0 0.00 0.00 0.00 59 1015.2
20260831071739 78 261 2.0 2.0 0.00 0.00 0.00 61 1015.2
20260831071239 77 258 3.0 6.0 0.00 0.00 0.00 62 1015.2
20260831070739 76 131 4.0 6.0 0.00 0.00 0.00 63 1015.2
20260831070239 76 352 1.0 2.0 0.00 0.00 0.00 70 1015.2
20260831065739 74 353 2.0 2.0 0.00 0.00 0.00 72 1015.9
20260831065239 73 330 1.0 1.0 0.00 0.00 0.00 78 1015.9
20260831064739 73 329 0.0 0.0 0.00 0.00 0.00 76 1015.9
20260831064239 71 322 0.0 1.0 0.00 0.00 0.00 83 1015.9
20260831063739 69 322 0.0 0.0 0.00 0.00 0.00 89 1015.9
20260831063239 67 320 0.0 0.0 0.00 0.00 0.00 90 1015.9
20260831062739 67 321 0.0 0.0 0.00 0.00 0.00 92 1015.9
20260831062239 66 321 0.0 0.0 0.00 0.00 0.00 93 1015.9
20260831061739 65 319 0.0 0.0 0.00 0.00 0.00 96 1015.9
20260831061239 64 321 0.0 0.0 0.00 0.00 0.00 97 1015.9
20260831060739 63 322 0.0 0.0 0.00 0.00 0.00 97 1015.9
20260831060239 63 317 0.0 0.0 0.00 0.00 0.00 99 1015.9
20260831055739 61 278 2.0 2.0 0.00 0.00 0.00 99 1016.3
20260831055239 61 270 2.0 2.0 0.00 0.00 0.00 99 1016.3
20260831054739 61 319 0.0 0.0 0.00 0.00 0.00 99 1016.3
20260831054239 60 278 1.0 2.0 0.00 0.00 0.00 99 1016.3
20260831053739 59 316 1.0 1.0 0.00 0.00 0.00 99 1016.3
20260831053239 59 322 0.0 0.0 0.00 0.00 0.00 99 1016.3
20260831052739 58 320 0.0 0.0 0.00 0.00 0.00 99 1016.3
20260831052239 59 327 0.0 0.0 0.00 0.00 0.00 99 1016.3
20260831051739 59 327 0.0 0.0 0.00 0.00 0.00 99 1016.3
20260831051239 58 328 0.0 0.0 0.00 0.00 0.00 99 1015.9
20260831050739 57 328 0.0 0.0 0.00 0.00 0.00 99 1015.9
20260831050239 57 327 0.0 0.0 0.00 0.00 0.00 99 1015.9
20260831045739 56 327 0.0 0.0 0.00 0.00 0.00 99 1016.3
20260831045239 56 330 0.0 0.0 0.00 0.00 0.00 99 1016.3
20260831044739 55 330 0.0 0.0 0.00 0.00 0.00 99 1016.3
20260831044239 54 330 0.0 0.0 0.00 0.00 0.00 99 1016.3
20260831043739 53 331 0.0 0.0 0.00 0.00 0.00 99 1016.3
20260831043239 53 330 0.0 0.0 0.00 0.00 0.00 99 1016.3
20260831042739 53 334 0.0 0.0 0.00 0.00 0.00 99 1016.3
20260831042239 53 335 0.0 0.0 0.00 0.00 0.00 99 1016.3
20260831041739 53 335 0.0 0.0 0.00 0.00 0.00 99 1016.3
20260831041239 53 334 0.0 0.0 0.00 0.00 0.00 99 1015.9
20260831040739 53 334 0.0 0.0 0.00 0.00 0.00 99 1015.9
20260831040239 53 333 0.0 0.0 0.00 0.00 0.00 99 1015.9
20260831035739 53 335 0.0 0.0 0.00 0.00 0.00 99 1016.3
20260831035239 53 336 0.0 0.0 0.00 0.00 0.00 99 1016.3
20260831034739 53 335 0.0 0.0 0.00 0.00 0.00 99 1016.3
20260831034239 53 335 0.0 0.0 0.00 0.00 0.00 99 1016.3
20260831033739 53 335 0.0 0.0 0.00 0.00 0.00 99 1016.3
20260831033239 53 336 0.0 0.0 0.00 0.00 0.00 99 1016.3
20260831032739 53 336 0.0 0.0 0.00 0.00 0.00 99 1016.3
20260831032239 53 335 0.0 0.0 0.00 0.00 0.00 99 1016.3
20260831031739 53 335 0.0 0.0 0.00 0.00 0.00 99 1016.3
20260831031239 53 335 0.0 0.0 0.00 0.00 0.00 99 1016.3
20260831030739 53 339 0.0 0.0 0.00 0.00 0.00 99 1016.3
20260831030239 53 333 0.0 0.0 0.00 0.00 0.00 99 1016.3
20260831025739 53 333 0.0 0.0 0.00 0.00 0.00 99 1016.3
20260831025239 53 333 0.0 0.0 0.00 0.00 0.00 99 1016.3
20260831024739 53 334 0.0 0.0 0.00 0.00 0.00 99 1016.3
20260831024239 53 335 0.0 0.0 0.00 0.00 0.00 99 1016.3
20260831023739 53 335 0.0 0.0 0.00 0.00 0.00 99 1016.3
20260831023239 54 331 0.0 0.0 0.00 0.00 0.00 99 1016.3
20260831022739 53 331 0.0 0.0 0.00 0.00 0.00 99 1016.3
20260831022239 54 331 0.0 0.0 0.00 0.00 0.00 99 1016.3
20260831021739 54 331 0.0 0.0 0.00 0.00 0.00 99 1016.3
20260831021239 54 332 0.0 0.0 0.00 0.00 0.00 99 1016.3
20260831020739 54 331 0.0 0.0 0.00 0.00 0.00 99 1016.3
20260831020239 54 331 0.0 0.0 0.00 0.00 0.00 99 1016.3
20260831015739 55 338 0.0 0.0 0.00 0.00 0.00 99 1016.3
20260831015239 55 339 0.0 0.0 0.00 0.00 0.00 99 1016.3
20260831014739 55 339 0.0 0.0 0.00 0.00 0.00 99 1016.3
20260831014239 55 339 0.0 0.0 0.00 0.00 0.00 99 1016.3
20260831013739 55 335 0.0 0.0 0.00 0.00 0.00 99 1016.6
20260831013239 55 331 0.0 0.0 0.00 0.00 0.00 99 1016.6
20260831012739 55 331 0.0 0.0 0.00 0.00 0.00 99 1016.6
20260831012239 55 331 0.0 0.0 0.00 0.00 0.00 99 1016.3
20260831011739 55 331 0.0 0.0 0.00 0.00 0.00 99 1016.3
20260831011239 56 331 0.0 0.0 0.00 0.00 0.00 99 1016.3
20260831010739 56 332 0.0 0.0 0.00 0.00 0.00 99 1016.3
20260831010239 56 334 0.0 0.0 0.00 0.00 0.00 99 1016.3
20260831005739 55 334 0.0 0.0 0.00 0.00 0.00 99 1016.3
20260831005239 56 334 0.0 0.0 0.00 0.00 0.00 99 1016.3
20260831004739 56 333 0.0 0.0 0.00 0.00 0.00 99 1016.6
20260831004239 56 334 0.0 0.0 0.00 0.00 0.00 99 1016.6
20260831003739 56 333 0.0 0.0 0.00 0.00 0.00 99 1016.6
20260831003239 56 333 0.0 0.0 0.00 0.00 0.00 99 1016.6
20260831002739 56 338 0.0 0.0 0.00 0.00 0.00 99 1016.6
20260831002239 56 331 0.0 0.0 0.00 0.00 0.00 99 1016.6
20260831001739 56 332 0.0 0.0 0.00 0.00 0.00 99 1016.6
20260831001239 56 332 0.0 0.0 0.00 0.00 0.00 99 1016.9
20260831000739 56 332 0.0 0.0 0.00 0.00 0.00 99 1016.9
20260831000241 56 332 0.0 0.0 0.00 0.00 0.00 99 1016.9
20260830235739 56 332 0.0 1.0 0.00 0.00 0.00 99 1016.9
20260830235239 56 336 0.0 1.0 0.00 0.00 0.00 99 1016.9
20260830234739 57 328 0.0 0.0 0.00 0.00 0.00 99 1016.9
20260830234239 56 320 0.0 0.0 0.00 0.00 0.00 99 1016.9
20260830233739 56 318 0.0 0.0 0.00 0.00 0.00 99 1016.9
20260830233239 57 320 0.0 0.0 0.00 0.00 0.00 99 1016.9
20260830232739 57 342 1.0 1.0 0.00 0.00 0.00 99 1016.9
20260830232239 57 333 0.0 0.0 0.00 0.00 0.00 99 1016.9
20260830231739 57 333 0.0 0.0 0.00 0.00 0.00 99 1016.9
20260830231239 57 333 0.0 0.0 0.00 0.00 0.00 99 1016.9
20260830230739 58 333 0.0 0.0 0.00 0.00 0.00 99 1016.9
20260830230239 58 333 0.0 0.0 0.00 0.00 0.00 99 1016.9
20260830225739 58 333 0.0 0.0 0.00 0.00 0.00 99 1016.9
20260830225239 57 333 0.0 0.0 0.00 0.00 0.00 99 1016.9
20260830224739 57 330 0.0 0.0 0.00 0.00 0.00 99 1016.9
20260830224239 58 330 0.0 0.0 0.00 0.00 0.00 99 1016.9